DW8947 Weather Reports


time (UTC)temp
C
wind
direction
speed
KPH
gust
KPH
rain 1hr
cm
rain 24hr
cm
rain mn
cm
humidity
%
barometer
mb
20260503015704 21 16 3.2 8.0 0.00 0.00 0.00 48 1011.2
20260503014704 21 338 1.6 4.8 0.00 0.00 0.00 48 1011.3
20260503014204 21 36 1.6 3.2 0.00 0.00 0.00 48 1011.3
20260503013204 21 335 1.6 4.8 0.00 0.00 0.00 46 1011.3
20260503012204 21 264 3.2 4.8 0.00 0.00 0.00 47 1011.3
20260503010204 22 66 1.6 4.8 0.00 0.00 0.00 48 1011.2
20260503005704 21 331 1.6 4.8 0.00 0.00 0.00 47 1011.3
20260503003704 22 56 1.6 8.0 0.00 0.00 0.00 46 1011.3
20260503003204 22 350 1.6 4.8 0.00 0.00 0.00 47 1011.4
20260503002203 22 348 1.6 4.8 0.00 0.00 0.00 47 1011.4
20260503001704 22 29 1.6 9.7 0.00 0.00 0.00 48 1011.3
20260503000704 22 347 1.6 4.8 0.00 0.00 0.00 48 1011.4
20260502234704 22 6 3.2 11.3 0.00 0.00 0.00 46 1011.6
20260502234204 22 322 1.6 9.7 0.00 0.00 0.00 47 1011.7
20260502232204 22 350 3.2 8.0 0.00 0.00 0.00 48 1012.0
20260502231704 22 321 1.6 8.0 0.00 0.00 0.00 48 1012.0
20260502231205 22 355 1.6 4.8 0.00 0.00 0.00 49 1012.0
20260502230705 22 337 3.2 8.0 0.00 0.00 0.00 47 1012.2
20260502230205 22 313 1.6 4.8 0.00 0.00 0.00 48 1012.3
20260502225705 22 325 3.2 4.8 0.00 0.00 0.00 48 1012.4
20260502224705 22 286 1.6 4.8 0.00 0.00 0.00 48 1012.6
20260502223705 22 351 1.6 4.8 0.00 0.00 0.00 48 1012.7
20260502220705 22 89 3.2 9.7 0.00 0.00 0.00 48 1013.1
20260502220205 22 327 1.6 4.8 0.00 0.00 0.00 47 1013.0
20260502215705 22 350 1.6 4.8 0.00 0.00 0.00 48 1013.0
20260502215205 22 321 1.6 3.2 0.00 0.00 0.00 49 1013.0
20260502214205 22 338 1.6 4.8 0.00 0.00 0.00 48 1013.1
20260502212705 22 68 3.2 4.8 0.00 0.00 0.00 48 1013.4
20260502210704 21 327 3.2 4.8 0.00 0.00 0.00 48 1013.6
20260502205705 21 315 3.2 4.8 0.00 0.00 0.00 49 1013.6
20260502205205 21 253 3.2 14.5 0.00 0.00 0.00 50 1013.6
20260502204705 21 252 3.2 9.7 0.00 0.00 0.00 49 1013.7
20260502204205 22 325 1.6 9.7 0.00 0.00 0.00 49 1013.8
20260502203705 22 30 1.6 8.0 0.00 0.00 0.00 50 1013.8
20260502200704 21 318 1.6 3.2 0.00 0.00 0.00 56 1014.2
20260502195705 21 325 1.6 3.2 0.00 0.00 0.00 57 1014.3
20260502195205 20 327 1.6 4.8 0.00 0.00 0.00 56 1014.4
20260502194204 20 285 1.6 4.8 0.00 0.00 0.00 56 1014.4
20260502191704 19 334 1.6 4.8 0.00 0.00 0.00 62 1014.4
20260502191205 19 268 1.6 4.8 0.00 0.00 0.00 63 1014.5
20260502190704 18 347 1.6 4.8 0.00 0.00 0.00 65 1014.6
20260502185704 18 277 1.6 4.8 0.00 0.00 0.00 65 1014.5
20260502184205 17 145 1.6 9.7 0.00 0.00 0.00 66 1014.6
20260502182705 17 318 1.6 4.8 0.00 0.00 0.00 69 1014.8
20260502182205 17 305 3.2 9.7 0.00 0.00 0.00 68 1015.0
20260502170205 15 3 1.6 4.8 0.00 0.00 0.00 77 1015.3
20260502164205 15 303 1.6 4.8 0.00 0.00 0.00 79 1015.3
20260502162205 14 126 1.6 4.8 0.00 0.00 0.00 80 1015.2
20260502161705 14 315 1.6 4.8 0.00 0.00 0.00 80 1015.3
20260502152205 11 302 1.6 3.2 0.00 0.00 0.00 90 1015.3
20260502151705 11 285 0.0 3.2 0.00 0.00 0.00 90 1015.3
20260502151205 11 242 0.0 3.2 0.00 0.00 0.00 90 1015.2
20260502150705 11 304 0.0 3.2 0.00 0.00 0.00 90 1015.2
20260502150205 11 304 0.0 3.2 0.00 0.00 0.00 90 1015.2
20260502130205 10 56 0.0 0.0 0.00 0.00 0.00 89 1015.0
20260502123705 10 56 0.0 1.6 0.00 0.00 0.00 89 1015.0
20260502123204 10 56 0.0 1.6 0.00 0.00 0.00 88 1015.1
20260502122705 10 56 0.0 0.0 0.00 0.00 0.00 88 1015.2
20260502122205 10 56 0.0 0.0 0.00 0.00 0.00 88 1015.2
20260502121704 10 56 0.0 0.0 0.00 0.00 0.00 88 1015.1
20260502120704 10 56 0.0 0.0 0.00 0.00 0.00 88 1015.2
20260502120204 10 56 0.0 0.0 0.00 0.00 0.00 88 1015.3
20260502115704 10 56 0.0 0.0 0.00 0.00 0.00 87 1015.4
20260502114204 11 56 0.0 0.0 0.00 0.00 0.00 86 1015.6
20260502112705 11 56 0.0 0.0 0.00 0.00 0.00 86 1015.7
20260502111705 11 56 0.0 0.0 0.00 0.00 0.00 86 1015.5
20260502110704 11 56 0.0 0.0 0.00 0.00 0.00 87 1015.3
20260502110204 11 56 0.0 0.0 0.00 0.00 0.00 86 1015.1
20260502105705 11 56 0.0 1.6 0.00 0.00 0.00 86 1015.1
20260502104204 11 56 0.0 0.0 0.00 0.00 0.00 85 1014.8
20260502102705 11 56 0.0 3.2 0.00 0.00 0.00 85 1014.8
20260502102205 11 56 0.0 3.2 0.00 0.00 0.00 85 1014.9
20260502101705 11 56 0.0 3.2 0.00 0.00 0.00 84 1014.8
20260502101205 11 56 0.0 0.0 0.00 0.00 0.00 84 1014.9
20260502100205 11 56 0.0 3.2 0.00 0.00 0.00 84 1014.9
20260502091205 11 56 0.0 0.0 0.00 0.00 0.00 84 1015.0
20260502090205 11 56 0.0 0.0 0.00 0.00 0.00 83 1015.1
20260502065205 12 56 0.0 0.0 0.00 0.00 0.00 78 1014.6
20260502064705 13 56 0.0 0.0 0.00 0.00 0.00 78 1014.6
20260502061705 13 56 0.0 0.0 0.00 0.00 0.00 77 1014.5
20260502061204 13 56 0.0 0.0 0.00 0.00 0.00 77 1014.5
20260502054704 13 56 0.0 1.6 0.00 0.00 0.00 76 1014.4
20260502054205 13 56 0.0 0.0 0.00 0.00 0.00 76 1014.4
20260502053705 13 56 0.0 0.0 0.00 0.00 0.00 76 1014.4
20260502053205 13 56 0.0 1.6 0.00 0.00 0.00 76 1014.4
20260502052705 13 56 0.0 3.2 0.00 0.00 0.00 74 1014.4
20260502050705 14 56 0.0 0.0 0.00 0.00 0.00 73 1014.3
20260502050205 14 56 0.0 3.2 0.00 0.00 0.00 72 1014.2
20260502045704 14 194 0.0 3.2 0.00 0.00 0.00 72 1014.2
20260502043705 15 61 0.0 1.6 0.00 0.00 0.00 72 1013.8
20260502043205 15 61 0.0 3.2 0.00 0.00 0.00 72 1013.8
20260502042205 15 90 1.6 3.2 0.00 0.00 0.00 72 1013.5
20260502041705 15 197 0.0 3.2 0.00 0.00 0.00 73 1013.5
20260502041205 15 178 0.0 3.2 0.00 0.00 0.00 71 1013.5
20260502040705 15 208 0.0 3.2 0.00 0.00 0.00 71 1013.5
20260502040205 15 235 0.0 3.2 0.00 0.00 0.00 72 1013.5
20260502035204 15 235 0.0 0.0 0.00 0.00 0.00 70 1013.4
20260502032705 16 259 0.0 3.2 0.00 0.00 0.00 66 1013.1
20260502032204 16 260 0.0 3.2 0.00 0.00 0.00 64 1013.1
20260502031205 16 260 1.6 4.8 0.00 0.00 0.00 64 1012.9
20260502030705 16 227 0.0 3.2 0.00 0.00 0.00 67 1012.8
20260502025705 17 210 0.0 3.2 0.00 0.00 0.00 67 1012.9
20260502024205 17 39 0.0 3.2 0.00 0.00 0.00 66 1012.6
20260502021705 18 337 1.6 3.2 0.00 0.00 0.00 60 1012.4
20260502021204 18 317 0.0 3.2 0.00 0.00 0.00 56 1012.7
20260502020704 18 35 1.6 4.8 0.00 0.00 0.00 57 1012.7